• In Latvia
  • List of Countries
  • For 7 days
  • Water Temperature
  • Satellite Maps
  • Weather Map
  • Weather Widgets
  • user-avatar
    Login

    Hourly Weather Kaprun

    Today, 13 December, Wednesday

    Time Temperature Precipitation Wind Pressure Humidity
    00:00 -10°C° 0.5 mm 2 mps 591 mmHg 96%
    01:00 -9°C° 0 mm 1 mps 591 mmHg 96%
    02:00 -10°C° 0.2 mm 1 mps 591 mmHg 95%
    03:00 -12°C° 0.2 mm 2 mps 591 mmHg 94%
    04:00 -13°C° 0.2 mm 2 mps 591 mmHg 93%
    05:00 -11°C° 0.1 mm 1 mps 591 mmHg 93%
    06:00 -12°C° 0.1 mm 1 mps 591 mmHg 92%
    07:00 -13°C° 0.1 mm 1 mps 590 mmHg 92%
    08:00 -11°C° 0.1 mm 1 mps 591 mmHg 89%
    09:00 -10°C° 0.1 mm 1 mps 591 mmHg 87%
    10:00 -9°C° 0.1 mm 1 mps 592 mmHg 84%
    11:00 -8°C° 0 mm 1 mps 592 mmHg 83%
    12:00 -7°C° 0 mm 1 mps 592 mmHg 81%
    13:00 -4°C° 0 mm 1 mps 592 mmHg 79%
    14:00 -7°C° 0 mm 2 mps 591 mmHg 83%
    15:00 -8°C° 0 mm 2 mps 590 mmHg 86%
    16:00 -9°C° 0 mm 2 mps 590 mmHg 90%
    17:00 -9°C° 0 mm 2 mps 589 mmHg 89%
    18:00 -9°C° 0 mm 2 mps 589 mmHg 89%
    19:00 -10°C° 0 mm 3 mps 589 mmHg 89%
    20:00 -10°C° 0 mm 3 mps 588 mmHg 89%
    21:00 -12°C° 0 mm 3 mps 588 mmHg 88%
    22:00 -12°C° 0 mm 3 mps 587 mmHg 87%
    23:00 -10°C° 0 mm 3 mps 587 mmHg 86%

    Tomorrow, 14 December, Thursday

    Time Temperature Precipitation Wind Pressure Humidity
    00:00 -10°C° 0 mm 3 mps 587 mmHg 85%
    01:00 -9°C° 0 mm 3 mps 586 mmHg 84%
    02:00 -9°C° 0 mm 3 mps 586 mmHg 83%
    03:00 -9°C° 0 mm 3 mps 586 mmHg 82%
    04:00 -9°C° 0 mm 3 mps 585 mmHg 81%
    05:00 -9°C° 0 mm 3 mps 585 mmHg 81%
    06:00 -10°C° 0 mm 3 mps 585 mmHg 81%
    07:00 -9°C° 0 mm 2 mps 585 mmHg 81%
    08:00 -8°C° 0.1 mm 2 mps 585 mmHg 83%
    09:00 -8°C° 0.1 mm 2 mps 586 mmHg 85%
    10:00 -6°C° 0.1 mm 1 mps 587 mmHg 87%
    11:00 -4°C° 0.4 mm 1 mps 587 mmHg 88%
    12:00 -4°C° 0.4 mm 1 mps 587 mmHg 89%
    13:00 -4°C° 0.4 mm 1 mps 587 mmHg 90%
    14:00 -4°C° 0.3 mm 1 mps 587 mmHg 92%
    15:00 -6°C° 0.3 mm 1 mps 586 mmHg 94%
    16:00 -6°C° 0.3 mm 1 mps 586 mmHg 96%
    17:00 -7°C° 0.3 mm 1 mps 585 mmHg 96%
    18:00 -8°C° 0.3 mm 2 mps 585 mmHg 95%
    19:00 -8°C° 0.3 mm 2 mps 585 mmHg 95%
    20:00 -9°C° 0.1 mm 2 mps 584 mmHg 93%
    21:00 -10°C° 0.1 mm 3 mps 584 mmHg 92%
    22:00 -10°C° 0.1 mm 3 mps 583 mmHg 90%
    23:00 -10°C° 0.1 mm 3 mps 583 mmHg 91%

    Day after tomorrow, 15 December, Friday

    Time Temperature Precipitation Wind Pressure Humidity
    00:00 -10°C° 0.1 mm 3 mps 582 mmHg 91%
    01:00 -9°C° 0.1 mm 2 mps 582 mmHg 91%
    02:00 -9°C° 0.1 mm 2 mps 582 mmHg 92%
    03:00 -9°C° 0.1 mm 2 mps 581 mmHg 92%
    04:00 -10°C° 0.1 mm 2 mps 581 mmHg 93%
    05:00 -9°C° 0.8 mm 2 mps 581 mmHg 94%
    06:00 -8°C° 0.8 mm 1 mps 582 mmHg 95%
    07:00 -7°C° 0.8 mm 1 mps 582 mmHg 96%
    08:00 -7°C° 0.8 mm 1 mps 583 mmHg 95%
    09:00 -7°C° 0.8 mm 1 mps 583 mmHg 95%
    10:00 -8°C° 0.8 mm 2 mps 583 mmHg 95%
    11:00 -6°C° 0.4 mm 1 mps 583 mmHg 93%
    12:00 -6°C° 0.4 mm 1 mps 583 mmHg 92%
    13:00 -6°C° 0.4 mm 1 mps 583 mmHg 91%
    14:00 -6°C° 0.7 mm 1 mps 583 mmHg 92%
    15:00 -8°C° 0.7 mm 2 mps 582 mmHg 94%
    16:00 -9°C° 0.7 mm 2 mps 582 mmHg 95%
    17:00 -9°C° 1.1 mm 2 mps 582 mmHg 95%
    18:00 -10°C° 1.1 mm 2 mps 582 mmHg 95%
    19:00 -10°C° 1.1 mm 2 mps 582 mmHg 95%
    20:00 -10°C° 0.9 mm 2 mps 582 mmHg 95%
    21:00 -12°C° 0.9 mm 2 mps 582 mmHg 94%
    22:00 -12°C° 0.9 mm 2 mps 582 mmHg 94%
    23:00 -12°C° 0.4 mm 2 mps 582 mmHg 93%

    16 December, Saturday

    Time Temperature Precipitation Wind Pressure Humidity
    00:00 -13°C° 0.4 mm 2 mps 582 mmHg 93%
    01:00 -13°C° 0.4 mm 2 mps 582 mmHg 92%
    02:00 -13°C° 0.1 mm 2 mps 582 mmHg 91%
    03:00 -13°C° 0.1 mm 2 mps 582 mmHg 90%
    04:00 -14°C° 0.1 mm 2 mps 582 mmHg 89%
    05:00 -14°C° 0.1 mm 2 mps 582 mmHg 89%
    06:00 -14°C° 0.1 mm 2 mps 583 mmHg 90%
    07:00 -14°C° 0.1 mm 2 mps 583 mmHg 90%
    08:00 -13°C° 0.2 mm 2 mps 584 mmHg 91%
    09:00 -12°C° 0.2 mm 2 mps 585 mmHg 91%
    10:00 -10°C° 0.2 mm 2 mps 586 mmHg 91%
    11:00 -10°C° 0.2 mm 2 mps 586 mmHg 89%
    12:00 -9°C° 0.2 mm 2 mps 587 mmHg 87%
    13:00 -9°C° 0.2 mm 2 mps 587 mmHg 85%
    14:00 -9°C° 0.3 mm 2 mps 587 mmHg 88%
    15:00 -10°C° 0.3 mm 2 mps 588 mmHg 90%
    16:00 -10°C° 0.3 mm 2 mps 588 mmHg 93%
    17:00 -12°C° 0.2 mm 2 mps 588 mmHg 93%
    18:00 -12°C° 0.2 mm 2 mps 589 mmHg 94%
    19:00 -13°C° 0.2 mm 2 mps 589 mmHg 94%
    20:00 -13°C° 0.1 mm 2 mps 589 mmHg 95%
    21:00 -14°C° 0.1 mm 2 mps 590 mmHg 95%
    22:00 -14°C° 0.1 mm 2 mps 590 mmHg 95%
    23:00 -14°C° 0.1 mm 2 mps 590 mmHg 94%

    17 December, Sunday

    Time Temperature Precipitation Wind Pressure Humidity
    00:00 -15°C° 0.1 mm 2 mps 590 mmHg 94%
    01:00 -15°C° 0.1 mm 2 mps 590 mmHg 94%
    02:00 -16°C° 0.1 mm 2 mps 590 mmHg 93%
    03:00 -16°C° 0.1 mm 2 mps 590 mmHg 93%
    04:00 -16°C° 0.1 mm 2 mps 590 mmHg 92%
    05:00 -16°C° 0.1 mm 2 mps 591 mmHg 92%
    06:00 -16°C° 0.1 mm 2 mps 591 mmHg 92%
    07:00 -16°C° 0.1 mm 2 mps 592 mmHg 92%
    08:00 -15°C° 0.1 mm 2 mps 593 mmHg 91%
    09:00 -14°C° 0.1 mm 2 mps 593 mmHg 91%
    10:00 -13°C° 0.1 mm 2 mps 594 mmHg 90%
    11:00 -13°C° 0.2 mm 2 mps 594 mmHg 89%
    12:00 -12°C° 0.2 mm 2 mps 594 mmHg 88%
    13:00 -12°C° 0.2 mm 2 mps 595 mmHg 88%
    14:00 -12°C° 0.2 mm 2 mps 595 mmHg 89%
    15:00 -13°C° 0.2 mm 2 mps 595 mmHg 91%
    16:00 -13°C° 0.2 mm 2 mps 595 mmHg 93%
    17:00 -14°C° 0.1 mm 2 mps 595 mmHg 93%
    18:00 -15°C° 0.1 mm 2 mps 596 mmHg 93%
    19:00 -15°C° 0.1 mm 2 mps 596 mmHg 94%
    20:00 -16°C° 0.1 mm 2 mps 596 mmHg 93%
    21:00 -16°C° 0.1 mm 2 mps 596 mmHg 93%
    22:00 -16°C° 0.1 mm 2 mps 596 mmHg 93%
    23:00 -16°C° 0.1 mm 2 mps 596 mmHg 92%

    18 December, Monday

    Time Temperature Precipitation Wind Pressure Humidity
    00:00 -17°C° 0.1 mm 2 mps 596 mmHg 92%
    01:00 -17°C° 0.1 mm 2 mps 596 mmHg 92%
    02:00 -17°C° 0.1 mm 2 mps 596 mmHg 91%
    03:00 -18°C° 0.1 mm 2 mps 596 mmHg 91%
    04:00 -18°C° 0.1 mm 2 mps 596 mmHg 90%
    05:00 -18°C° 0 mm 2 mps 596 mmHg 89%
    06:00 -18°C° 0 mm 2 mps 595 mmHg 88%
    07:00 -18°C° 0 mm 2 mps 595 mmHg 87%
    08:00 -17°C° 0 mm 2 mps 596 mmHg 86%
    09:00 -15°C° 0 mm 2 mps 596 mmHg 84%
    10:00 -14°C° 0 mm 2 mps 597 mmHg 83%
    11:00 -11°C° 0.2 mm 1 mps 597 mmHg 83%
    12:00 -9°C° 0.2 mm 1 mps 596 mmHg 83%
    13:00 -8°C° 0.2 mm 1 mps 596 mmHg 83%
    14:00 -8°C° 0.3 mm 1 mps 596 mmHg 86%
    15:00 -9°C° 0.3 mm 1 mps 595 mmHg 89%
    16:00 -9°C° 0.3 mm 1 mps 595 mmHg 92%
    17:00 -9°C° 0.4 mm 1 mps 595 mmHg 92%
    18:00 -9°C° 0.4 mm 1 mps 595 mmHg 92%
    19:00 -9°C° 0.4 mm 1 mps 594 mmHg 92%
    20:00 -9°C° 0.5 mm 1 mps 595 mmHg 93%
    21:00 -9°C° 0.5 mm 1 mps 595 mmHg 93%
    22:00 -9°C° 0.5 mm 1 mps 595 mmHg 94%
    23:00 -8°C° 0.5 mm 1 mps 595 mmHg 94%
    Show more